Location: Forli
(44.2227°N, 12.0407°E)
Time: 02:58:22
(UTC+02:00)

DX 1 - Pass Details

Date: 19 April 2026
Orbit: 593 x 604 km, 98.4° (Epoch: 19 May)

Event Time Altitude Azimuth Distance (km) Brightness Sun altitude
Rises 03:56:08 0° 18° (NNE) 2,842 ? -23.2°
Reaches altitude 10° 03:58:22 10° 24° (NNE) 1,935 ? -22.9°
Maximum altitude 04:02:27 50° 100° (E) 756 ? -22.4°
Enters shadow 04:03:43 37° 151° (SSE) 935 ? -22.2°
